NORTHERN QUEENS  -  Air Quality Alert Air Quality Alert        SOUTHERN QUEENS  -  Air Quality Alert Air Quality Alert      

Active alerts

Northern Queens
  Details for Northern Queens Air Quality Alert
Southern Queens
  Details for Southern Queens Air Quality Alert


WXM80 ListenWXM80 Stop

You find our weather info also at:

UK Metoffice

WeatherCloud

Weather Underground

Northeastern Weather Network

AWEKAS

Citizen Weather Observer Program (CWOP)

HAMweather, WeatherForYou, PWS Weather


Weather Underground History page Text

Daily Summary for February 3, 2017 Units:  Metric    English   Both
« Previous Day
Next Day »
Daily Weekly Monthly Yearly Custom
  High: Low: Average:
Temperature: 0.6 °C -3.1 °C -0.9 °C
Dew Point: -6.8 °C -10.8 °C -8.9 °C
Humidity: 61 % 48 % 55 %
Wind Speed: 20.3 km/h 0.6 km/h 7.6 km/h
Wind Gust: 40.7 km/h - -
Wind:- - WNW
Pressure: 1023.2 hPa 1017.8 hPa -
Precipitation: 0 mm    
Historical Graphs
 
 
Tabular Data for February 3, 2017
Time Temperature Dew Point Pressure Wind Wind Speed Wind Gust Humidity Rainfall Rate (Hourly)
00:01 0.1 °C -7.2 °C 1021.2 hPa WNW 9.8 km/h 17.7 km/h 58 % 0 mm
00:06 0 °C -7.1 °C 1020.9 hPa West 6.8 km/h 11.1 km/h 59 % 0 mm
00:11 0 °C -6.8 °C 1021.2 hPa WNW 7.1 km/h 14.8 km/h 60 % 0 mm
00:16 -0.1 °C -7.1 °C 1021.2 hPa WNW 7.7 km/h 14.8 km/h 59 % 0 mm
00:21 -0.1 °C -7.1 °C 1021.2 hPa WNW 5.1 km/h 16.7 km/h 59 % 0 mm
00:26 -0.1 °C -7.4 °C 1021.2 hPa West 9 km/h 14.8 km/h 58 % 0 mm
00:31 -0.1 °C -7.4 °C 1021.2 hPa WNW 8.5 km/h 16.7 km/h 58 % 0 mm
00:36 -0.2 °C -7.4 °C 1021.2 hPa WNW 9.5 km/h 18.5 km/h 58 % 0 mm
00:41 -0.2 °C -7.7 °C 1021.2 hPa NW 9 km/h 14.8 km/h 57 % 0 mm
00:42 -0.2 °C -7.7 °C 1021.2 hPa North 9.2 km/h 14.8 km/h 57 % 0 mm
00:47 -0.2 °C -7.9 °C 1021.6 hPa WNW 7.1 km/h 9.3 km/h 56 % 0 mm
00:52 -0.3 °C -8 °C 1021.6 hPa NNW 5.3 km/h 16.7 km/h 56 % 0 mm
00:57 -0.3 °C -8 °C 1021.6 hPa WNW 7.4 km/h 14.8 km/h 56 % 0 mm
01:02 -0.3 °C -7.8 °C 1021.2 hPa WNW 5.5 km/h 11.1 km/h 57 % 0 mm
01:07 -0.3 °C -7.6 °C 1021.2 hPa NNW 11.3 km/h 11.3 km/h 58 % 0 mm
01:12 -0.3 °C -7.8 °C 1021.6 hPa WSW 9.5 km/h 16.7 km/h 57 % 0 mm
01:17 -0.4 °C -7.9 °C 1021.6 hPa WNW 4.8 km/h 9.7 km/h 57 % 0 mm
01:22 -0.4 °C -8.2 °C 1021.6 hPa WNW 7.7 km/h 27.8 km/h 56 % 0 mm
01:27 -0.4 °C -7.9 °C 1021.6 hPa NW 13.7 km/h 22.2 km/h 57 % 0 mm
01:32 -0.4 °C -8.2 °C 1021.6 hPa West 6 km/h 16.7 km/h 56 % 0 mm
01:37 -0.5 °C -8.2 °C 1021.6 hPa NW 7.7 km/h 22.2 km/h 56 % 0 mm
01:42 -0.5 °C -8.4 °C 1021.6 hPa WNW 11.1 km/h 20.4 km/h 55 % 0 mm
01:47 -0.6 °C -8.7 °C 1021.6 hPa West 13.4 km/h 18.5 km/h 54 % 0 mm
01:52 -0.6 °C -8.6 °C 1021.6 hPa NW 4.3 km/h 14.8 km/h 55 % 0 mm
01:57 -0.7 °C -8.6 °C 1021.9 hPa WNW 8.5 km/h 18.5 km/h 55 % 0 mm
02:03 -0.7 °C -8.4 °C 1021.9 hPa NW 10.1 km/h 18.5 km/h 56 % 0 mm
02:08 -0.8 °C -8.5 °C 1021.9 hPa WNW 8.5 km/h 14.8 km/h 56 % 0 mm
02:13 -0.8 °C -8.5 °C 1021.9 hPa WNW 8.9 km/h 13 km/h 56 % 0 mm
02:18 -0.9 °C -8.6 °C 1021.9 hPa NW 8 km/h 18.5 km/h 56 % 0 mm
02:23 -0.9 °C -8.3 °C 1021.9 hPa NW 9.5 km/h 20.4 km/h 57 % 0 mm
02:28 -0.9 °C -8.6 °C 1021.6 hPa NNW 6.3 km/h 16.7 km/h 56 % 0 mm
02:33 -1 °C -8.7 °C 1021.9 hPa WNW 5.3 km/h 16.7 km/h 56 % 0 mm
02:38 -1 °C -8.2 °C 1021.9 hPa WNW 7.2 km/h 11.1 km/h 58 % 0 mm
02:43 -1.1 °C -7.6 °C 1021.9 hPa NW 5.3 km/h 11.1 km/h 61 % 0 mm
02:48 -1.1 °C -7.9 °C 1021.9 hPa NNW 5 km/h 7.4 km/h 60 % 0 mm
02:53 -1.2 °C -7.8 °C 1021.6 hPa North 8.9 km/h 22.2 km/h 61 % 0 mm
02:58 -1.2 °C -8 °C 1021.9 hPa NW 6.4 km/h 12.9 km/h 60 % 0 mm
03:03 -1.3 °C -8.1 °C 1021.9 hPa NNW 6.1 km/h 7.4 km/h 60 % 0 mm
03:08 -1.3 °C -8.1 °C 1021.9 hPa NW 8.4 km/h 18.5 km/h 60 % 0 mm
03:13 -1.4 °C -8.2 °C 1021.9 hPa NNW 9 km/h 14.8 km/h 60 % 0 mm
03:18 -1.4 °C -8.2 °C 1021.9 hPa WNW 9.8 km/h 17.7 km/h 60 % 0 mm
03:23 -1.5 °C -8.3 °C 1021.9 hPa NNW 7.6 km/h 20.4 km/h 60 % 0 mm
03:28 -1.6 °C -8.3 °C 1021.9 hPa NW 10.5 km/h 18.5 km/h 60 % 0 mm
03:33 -1.6 °C -8.4 °C 1021.6 hPa WNW 8.7 km/h 19.3 km/h 60 % 0 mm
03:38 -1.7 °C -8.4 °C 1021.6 hPa North 14.3 km/h 24.1 km/h 60 % 0 mm
03:43 -1.7 °C -8.5 °C 1021.6 hPa NW 10.3 km/h 14.8 km/h 60 % 0 mm
03:48 -1.8 °C -8.7 °C 1021.6 hPa NNW 10.1 km/h 18.5 km/h 59 % 0 mm
03:53 -1.8 °C -9 °C 1021.6 hPa West 12.7 km/h 29.6 km/h 58 % 0 mm
03:58 -1.9 °C -8.8 °C 1021.6 hPa WNW 12.7 km/h 27.8 km/h 59 % 0 mm
04:03 -1.9 °C -9.1 °C 1021.6 hPa NW 9.7 km/h 27.4 km/h 58 % 0 mm
04:08 -2 °C -9.2 °C 1021.9 hPa NW 9.7 km/h 19.3 km/h 58 % 0 mm
04:13 -2.1 °C -9.2 °C 1021.9 hPa WNW 11.3 km/h 22.5 km/h 58 % 0 mm
04:18 -2.1 °C -9.5 °C 1021.9 hPa WNW 10.3 km/h 18.5 km/h 57 % 0 mm
04:23 -2.2 °C -9.6 °C 1021.9 hPa WNW 4.8 km/h 19.3 km/h 57 % 0 mm
04:28 -2.2 °C -9.4 °C 1021.9 hPa NW 9.7 km/h 20.9 km/h 58 % 0 mm
04:33 -2.2 °C -9.2 °C 1021.9 hPa NW 9.7 km/h 24.1 km/h 59 % 0 mm
04:38 -2.3 °C -9.4 °C 1021.9 hPa NW 8 km/h 19.3 km/h 58 % 0 mm
04:43 -2.3 °C -9.2 °C 1021.9 hPa NW 9.7 km/h 14.5 km/h 59 % 0 mm
04:48 -2.3 °C -9.5 °C 1021.9 hPa NW 4.8 km/h 19.3 km/h 58 % 0 mm
04:53 -2.4 °C -9.5 °C 1021.9 hPa NW 9.7 km/h 19.3 km/h 58 % 0 mm
04:58 -2.4 °C -9.4 °C 1021.9 hPa NW 11.7 km/h 16.7 km/h 59 % 0 mm
05:03 -2.4 °C -9.6 °C 1021.9 hPa NW 11.3 km/h 20.9 km/h 58 % 0 mm
05:08 -2.5 °C -9.7 °C 1021.9 hPa WNW 9.7 km/h 16.1 km/h 58 % 0 mm
05:13 -2.6 °C -9.7 °C 1021.9 hPa NW 8 km/h 22.5 km/h 58 % 0 mm
05:18 -2.6 °C -9.7 °C 1021.9 hPa NW 8 km/h 16.1 km/h 58 % 0 mm
05:23 -2.6 °C -9.8 °C 1022.2 hPa NW 8 km/h 16.1 km/h 58 % 0 mm
05:28 -2.7 °C -9.8 °C 1022.2 hPa NW 4.8 km/h 14.5 km/h 58 % 0 mm
05:33 -2.7 °C -9.8 °C 1022.2 hPa WNW 6.8 km/h 16.7 km/h 58 % 0 mm
05:38 -2.7 °C -9.8 °C 1022.2 hPa WNW 9.7 km/h 14.5 km/h 58 % 0 mm
05:43 -2.8 °C -9.9 °C 1022.2 hPa WNW 9.7 km/h 19.3 km/h 58 % 0 mm
05:48 -2.8 °C -9.9 °C 1022.2 hPa WNW 11.3 km/h 19.3 km/h 58 % 0 mm
05:53 -2.8 °C -9.9 °C 1022.2 hPa WNW 6.4 km/h 11.1 km/h 58 % 0 mm
05:58 -2.8 °C -9.9 °C 1022.2 hPa NW 10.5 km/h 14.8 km/h 58 % 0 mm
06:03 -2.8 °C -9.9 °C 1021.9 hPa WNW 8 km/h 19.3 km/h 58 % 0 mm
06:08 -2.9 °C -9.8 °C 1021.9 hPa WNW 11.3 km/h 19.3 km/h 59 % 0 mm
06:13 -2.9 °C -10 °C 1022.2 hPa WNW 8 km/h 20.9 km/h 58 % 0 mm
06:18 -2.9 °C -10 °C 1022.2 hPa WNW 4.8 km/h 11.3 km/h 58 % 0 mm
06:23 -2.9 °C -9.8 °C 1022.2 hPa WNW 9.7 km/h 22.5 km/h 59 % 0 mm
06:28 -2.9 °C -9.8 °C 1022.6 hPa WNW 4.8 km/h 19.3 km/h 59 % 0 mm
06:33 -3 °C -9.9 °C 1022.6 hPa WNW 4 km/h 11.3 km/h 59 % 0 mm
06:38 -3 °C -9.7 °C 1022.6 hPa NW 3.2 km/h 14.5 km/h 60 % 0 mm
06:43 -3.1 °C -9.7 °C 1022.6 hPa NW 8 km/h 20.9 km/h 60 % 0 mm
06:48 -3.1 °C -9.9 °C 1022.6 hPa NW 4.8 km/h 14.5 km/h 59 % 0 mm
06:53 -3.1 °C -9.7 °C 1022.6 hPa NW 6 km/h 11.1 km/h 60 % 0 mm
06:58 -3.1 °C -10 °C 1022.6 hPa NNW 5.1 km/h 18.5 km/h 59 % 0 mm
07:03 -3.1 °C -9.8 °C 1022.2 hPa NW 3.2 km/h 19.3 km/h 60 % 0 mm
07:08 -3.1 °C -9.8 °C 1022.2 hPa NW 4.8 km/h 16.1 km/h 60 % 0 mm
07:13 -3.1 °C -10 °C 1022.6 hPa NNW 5.3 km/h 11.1 km/h 59 % 0 mm
07:18 -3.1 °C -9.8 °C 1022.6 hPa NW 3.2 km/h 9.7 km/h 60 % 0 mm
07:23 -3.1 °C -9.7 °C 1022.6 hPa NW 3.2 km/h 9.7 km/h 60 % 0 mm
07:28 -3.1 °C -9.9 °C 1022.6 hPa NW 8 km/h 19.3 km/h 59 % 0 mm
07:33 -3 °C -9.9 °C 1022.9 hPa WNW 5.5 km/h 13 km/h 59 % 0 mm
07:38 -3 °C -9.9 °C 1022.6 hPa NW 4.8 km/h 8 km/h 59 % 0 mm
07:43 -2.9 °C -9.8 °C 1022.6 hPa WNW 4.8 km/h 16.1 km/h 59 % 0 mm
07:48 -2.9 °C -9.8 °C 1022.6 hPa NW 3.2 km/h 12.9 km/h 59 % 0 mm
07:53 -2.9 °C -9.8 °C 1022.6 hPa WNW 4.8 km/h 8 km/h 59 % 0 mm
07:58 -2.8 °C -9.5 °C 1022.9 hPa WNW 4.5 km/h 9.3 km/h 60 % 0 mm
08:03 -2.8 °C -9.3 °C 1022.6 hPa NW 4.8 km/h 14.5 km/h 61 % 0 mm
08:08 -2.7 °C -9.6 °C 1022.6 hPa NW 3.2 km/h 11.3 km/h 59 % 0 mm
08:13 -2.7 °C -9.8 °C 1022.6 hPa WNW 5.1 km/h 11.1 km/h 58 % 0 mm
08:18 -2.6 °C -9.5 °C 1022.9 hPa NW 3.2 km/h 12.9 km/h 59 % 0 mm
08:23 -2.5 °C -9.4 °C 1022.9 hPa WNW 9.3 km/h 11.1 km/h 59 % 0 mm
08:28 -2.4 °C -9.4 °C 1022.9 hPa NW 1.6 km/h 9.7 km/h 59 % 0 mm
08:33 -2.3 °C -9.3 °C 1022.9 hPa NW 4.7 km/h 11.1 km/h 59 % 0 mm
08:38 -2.3 °C -9.4 °C 1022.9 hPa WNW 8 km/h 12.9 km/h 58 % 0 mm
08:43 -2.2 °C -9.4 °C 1022.9 hPa WNW 3.2 km/h 11.3 km/h 58 % 0 mm
08:48 -2.1 °C -9.3 °C 1023.2 hPa NW 3.2 km/h 12.9 km/h 58 % 0 mm
08:53 -2 °C -9.4 °C 1023.2 hPa West 7.9 km/h 9.3 km/h 57 % 0 mm
08:58 -1.9 °C -9.3 °C 1023.2 hPa WNW 7.2 km/h 7.2 km/h 57 % 0 mm
09:04 -1.8 °C -9.4 °C 1023.2 hPa SW 6.8 km/h 14.8 km/h 56 % 0 mm
09:09 -1.8 °C -9.2 °C 1023.2 hPa WNW 8.2 km/h 13 km/h 57 % 0 mm
09:14 -1.7 °C -9.3 °C 1023.2 hPa WNW 2.9 km/h 9.3 km/h 56 % 0 mm
09:19 -1.6 °C -9.4 °C 1023.2 hPa WNW 10.8 km/h 17.7 km/h 55 % 0 mm
09:24 -1.5 °C -9.6 °C 1023.2 hPa WNW 5.6 km/h 7.4 km/h 54 % 0 mm
09:29 -1.4 °C -9.3 °C 1023.2 hPa WNW 3.7 km/h 7.4 km/h 55 % 0 mm
09:34 -1.4 °C -9.3 °C 1023.2 hPa WNW 5.5 km/h 8 km/h 55 % 0 mm
09:39 -1.3 °C -9.4 °C 1023.2 hPa West 10.6 km/h 14.8 km/h 54 % 0 mm
09:44 -1.2 °C -9.3 °C 1023.2 hPa WSW 7.9 km/h 13 km/h 54 % 0 mm
09:49 -1.1 °C -9.3 °C 1023.2 hPa WNW 7.4 km/h 14.8 km/h 54 % 0 mm
09:54 -1.1 °C -9.2 °C 1023.2 hPa WNW 6 km/h 9.3 km/h 54 % 0 mm
09:59 -1 °C -9.4 °C 1022.9 hPa NW 4 km/h 13 km/h 53 % 0 mm
10:04 -0.9 °C -9.3 °C 1022.6 hPa NW 4.8 km/h 9.3 km/h 53 % 0 mm
10:09 -0.9 °C -9.3 °C 1022.6 hPa WNW 3.5 km/h 11.1 km/h 53 % 0 mm
10:14 -0.8 °C -9.2 °C 1022.6 hPa West 6.1 km/h 13 km/h 53 % 0 mm
10:19 -0.8 °C -9.2 °C 1022.9 hPa WSW 2.1 km/h 5.6 km/h 53 % 0 mm
10:24 -0.7 °C -8.9 °C 1022.6 hPa WNW 2.7 km/h 9.3 km/h 54 % 0 mm
10:29 -0.7 °C -9.1 °C 1022.6 hPa West 7.2 km/h 9.3 km/h 53 % 0 mm
10:34 -0.7 °C -9.1 °C 1022.6 hPa West 8 km/h 16.7 km/h 53 % 0 mm
10:39 -0.6 °C -9.3 °C 1022.2 hPa WNW 4.2 km/h 9.3 km/h 52 % 0 mm
10:44 -0.4 °C -8.6 °C 1022.2 hPa WNW 3.4 km/h 9.3 km/h 54 % 0 mm
10:50 -0.2 °C -8.8 °C 1022.2 hPa WSW 8.7 km/h 9.7 km/h 52 % 0 mm
10:55 -0.2 °C -8.8 °C 1022.2 hPa WSW 6.8 km/h 13 km/h 52 % 0 mm
11:00 -0.2 °C -9.1 °C 1021.9 hPa NW 6.1 km/h 11.1 km/h 51 % 0 mm
11:05 -0.3 °C -9.2 °C 1021.9 hPa WNW 11.1 km/h 14.8 km/h 51 % 0 mm
11:10 -0.4 °C -9.1 °C 1021.9 hPa WSW 6.8 km/h 9.3 km/h 52 % 0 mm
11:15 -0.4 °C -8.8 °C 1021.9 hPa WNW 3.9 km/h 11.3 km/h 53 % 0 mm
11:20 -0.4 °C -8.9 °C 1021.6 hPa WSW 6.6 km/h 9.3 km/h 53 % 0 mm
11:25 -0.4 °C -9.1 °C 1021.6 hPa WNW 5.8 km/h 9.3 km/h 52 % 0 mm
11:30 -0.5 °C -9.2 °C 1021.6 hPa SW 7.9 km/h 18.5 km/h 52 % 0 mm
11:35 -0.5 °C -9.2 °C 1021.6 hPa West 6.1 km/h 9.3 km/h 52 % 0 mm
11:40 -0.6 °C -9.2 °C 1021.6 hPa SW 8.2 km/h 14.8 km/h 52 % 0 mm
11:45 -0.6 °C -9 °C 1021.2 hPa West 1.3 km/h 9.7 km/h 53 % 0 mm
11:50 -0.4 °C -8.9 °C 1021.2 hPa WNW 6.3 km/h 13 km/h 53 % 0 mm
11:55 -0.3 °C -8.8 °C 1020.9 hPa WSW 8.4 km/h 19.3 km/h 53 % 0 mm
12:00 -0.3 °C -8.8 °C 1020.9 hPa West 6.3 km/h 13 km/h 53 % 0 mm
12:05 -0.3 °C -8.7 °C 1020.9 hPa SW 8.9 km/h 14.8 km/h 53 % 0 mm
12:10 -0.2 °C -8.9 °C 1020.5 hPa SW 6.9 km/h 9.3 km/h 52 % 0 mm
12:15 -0.2 °C -8.8 °C 1020.5 hPa West 10.5 km/h 16.7 km/h 52 % 0 mm
12:20 -0.2 °C -8.6 °C 1020.5 hPa WSW 6.1 km/h 16.1 km/h 53 % 0 mm
12:25 -0.1 °C -8.8 °C 1020.5 hPa SW 5.3 km/h 14.8 km/h 52 % 0 mm
12:31 -0.1 °C -8.5 °C 1020.2 hPa NW 9.5 km/h 14.8 km/h 53 % 0 mm
12:36 0.2 °C -8.6 °C 1020.2 hPa SW 8.5 km/h 13 km/h 52 % 0 mm
12:41 0.2 °C -9 °C 1019.9 hPa WNW 7.7 km/h 13 km/h 50 % 0 mm
12:46 0.2 °C -8.7 °C 1019.9 hPa WNW 8.7 km/h 13 km/h 51 % 0 mm
12:51 0.2 °C -9 °C 1019.9 hPa WNW 9.8 km/h 14.8 km/h 50 % 0 mm
12:56 0.2 °C -9.1 °C 1019.5 hPa NW 5.6 km/h 11.1 km/h 50 % 0 mm
13:01 0.2 °C -9.1 °C 1019.5 hPa West 6.6 km/h 8 km/h 50 % 0 mm
13:06 0.2 °C -8.8 °C 1019.5 hPa WNW 8 km/h 14.8 km/h 51 % 0 mm
13:11 0.1 °C -9.1 °C 1019.5 hPa WNW 9.8 km/h 16.7 km/h 50 % 0 mm
13:16 0.1 °C -9.2 °C 1019.2 hPa WNW 7.1 km/h 9.3 km/h 50 % 0 mm
13:21 0.1 °C -9.2 °C 1019.2 hPa West 8.9 km/h 14.8 km/h 50 % 0 mm
13:26 0.2 °C -8.8 °C 1018.8 hPa SW 7.6 km/h 11.3 km/h 51 % 0 mm
13:31 0.2 °C -9 °C 1018.8 hPa WSW 11.4 km/h 13 km/h 50 % 0 mm
13:36 0.2 °C -8.7 °C 1018.8 hPa WNW 4.5 km/h 11.3 km/h 51 % 0 mm
13:41 0.3 °C -8.7 °C 1018.8 hPa West 8.7 km/h 14.8 km/h 51 % 0 mm
13:46 0.3 °C -8.7 °C 1018.8 hPa WSW 9.3 km/h 12.9 km/h 51 % 0 mm
13:51 0.3 °C -8.7 °C 1018.8 hPa WSW 7.6 km/h 11.3 km/h 51 % 0 mm
13:56 0.5 °C -8.7 °C 1018.5 hPa SW 9.3 km/h 13 km/h 50 % 0 mm
14:01 0.6 °C -8.7 °C 1018.5 hPa WSW 8 km/h 14.8 km/h 50 % 0 mm
14:06 0.5 °C -9 °C 1018.5 hPa SW 11.6 km/h 14.8 km/h 49 % 0 mm
14:11 0.3 °C -8.9 °C 1018.5 hPa SSW 8.4 km/h 18.5 km/h 50 % 0 mm
14:16 0.4 °C -8.6 °C 1018.5 hPa SW 7.4 km/h 13 km/h 51 % 0 mm
14:17 0.4 °C -8.6 °C 1018.5 hPa South 7.2 km/h 14.5 km/h 51 % 0 mm
14:22 0.4 °C -8.3 °C 1018.5 hPa West 3.2 km/h 11.1 km/h 52 % 0 mm
14:27 0.5 °C -8.5 °C 1018.2 hPa West 9.5 km/h 13 km/h 51 % 0 mm
14:32 0.6 °C -8.4 °C 1018.2 hPa WSW 6.3 km/h 9.3 km/h 51 % 0 mm
14:37 0.6 °C -8.6 °C 1018.2 hPa West 5.5 km/h 11.1 km/h 50 % 0 mm
14:42 0.6 °C -8.7 °C 1018.2 hPa WSW 7.4 km/h 13 km/h 50 % 0 mm
14:47 0.6 °C -8.7 °C 1018.2 hPa SW 6.4 km/h 13 km/h 50 % 0 mm
14:52 0.5 °C -8.7 °C 1018.2 hPa WSW 4 km/h 7.4 km/h 50 % 0 mm
14:57 0.4 °C -8.8 °C 1018.2 hPa WSW 7.9 km/h 11.1 km/h 50 % 0 mm
15:02 0.4 °C -8.8 °C 1018.2 hPa WSW 5.3 km/h 9.7 km/h 50 % 0 mm
15:07 0.4 °C -8.8 °C 1018.2 hPa West 10.9 km/h 13 km/h 50 % 0 mm
15:12 0.3 °C -8.7 °C 1018.2 hPa WNW 5.6 km/h 11.1 km/h 51 % 0 mm
15:17 0.3 °C -8.9 °C 1018.2 hPa WSW 7.4 km/h 14.8 km/h 50 % 0 mm
15:22 0.3 °C -8.4 °C 1018.2 hPa WSW 1.4 km/h 5.6 km/h 52 % 0 mm
15:27 0.3 °C -8.7 °C 1018.2 hPa SW 4.5 km/h 16.7 km/h 51 % 0 mm
15:32 0.3 °C -8.7 °C 1018.2 hPa WSW 7.2 km/h 13 km/h 51 % 0 mm
15:37 0.3 °C -8.7 °C 1018.2 hPa WSW 6.6 km/h 13 km/h 51 % 0 mm
15:42 0.3 °C -8.7 °C 1017.8 hPa West 7.9 km/h 13 km/h 51 % 0 mm
15:47 0.2 °C -8.7 °C 1017.8 hPa WNW 4.3 km/h 5.6 km/h 51 % 0 mm
15:52 0.3 °C -8.7 °C 1017.8 hPa West 4.8 km/h 11.1 km/h 51 % 0 mm
15:57 0.2 °C -8.7 °C 1017.8 hPa West 2.4 km/h 7.4 km/h 51 % 0 mm
16:03 0.2 °C -8.5 °C 1017.8 hPa WSW 5.5 km/h 9.7 km/h 52 % 0 mm
16:08 0.3 °C -8.7 °C 1017.8 hPa West 3.4 km/h 14.8 km/h 51 % 0 mm
16:13 0.3 °C -8.4 °C 1017.8 hPa WNW 2.4 km/h 7.4 km/h 52 % 0 mm
16:18 0.3 °C -8.4 °C 1017.8 hPa West 3.4 km/h 9.3 km/h 52 % 0 mm
16:23 0.3 °C -8.7 °C 1017.8 hPa WSW 8.5 km/h 14.8 km/h 51 % 0 mm
16:28 0.3 °C -8.9 °C 1017.8 hPa WNW 6.6 km/h 11.1 km/h 50 % 0 mm
16:33 0.2 °C -9.3 °C 1017.8 hPa WNW 7.9 km/h 14.8 km/h 49 % 0 mm
16:38 0.2 °C -9.3 °C 1017.8 hPa WNW 6.9 km/h 14.8 km/h 49 % 0 mm
16:43 0.2 °C -9 °C 1018.2 hPa NNW 4 km/h 13 km/h 50 % 0 mm
16:48 0.2 °C -9.3 °C 1018.2 hPa West 3.9 km/h 9.3 km/h 49 % 0 mm
16:53 0.1 °C -9.1 °C 1017.8 hPa WNW 6.9 km/h 11.3 km/h 50 % 0 mm
16:58 0.1 °C -9.1 °C 1017.8 hPa NW 6.1 km/h 13 km/h 50 % 0 mm
17:03 0.1 °C -8.9 °C 1017.8 hPa WNW 1.4 km/h 9.3 km/h 51 % 0 mm
17:08 0.1 °C -8.9 °C 1017.8 hPa WNW 8.7 km/h 13 km/h 51 % 0 mm
17:13 0.1 °C -8.7 °C 1018.2 hPa WNW 6.1 km/h 11.1 km/h 52 % 0 mm
17:18 0 °C -8.7 °C 1018.2 hPa WNW 5 km/h 16.1 km/h 52 % 0 mm
17:23 0 °C -8.9 °C 1017.8 hPa WNW 1 km/h 3.7 km/h 51 % 0 mm
17:28 0 °C -8.9 °C 1017.8 hPa West 5.8 km/h 9.7 km/h 51 % 0 mm
17:33 -0.1 °C -8.8 °C 1018.2 hPa WNW 0.8 km/h 1.9 km/h 52 % 0 mm
17:38 -0.1 °C -8.8 °C 1017.8 hPa WNW 0.6 km/h 5.6 km/h 52 % 0 mm
17:43 -0.1 °C -8.5 °C 1018.2 hPa WNW 3.1 km/h 9.3 km/h 53 % 0 mm
17:48 -0.1 °C -8.8 °C 1018.2 hPa WNW 1.8 km/h 11.1 km/h 52 % 0 mm
17:53 -0.1 °C -8.6 °C 1018.2 hPa WNW 3.5 km/h 9.7 km/h 53 % 0 mm
17:58 -0.1 °C -8.8 °C 1018.2 hPa WNW 3.5 km/h 13 km/h 52 % 0 mm
18:03 -0.1 °C -8.8 °C 1018.2 hPa WNW 4.8 km/h 14.5 km/h 52 % 0 mm
18:08 -0.1 °C -8.8 °C 1018.2 hPa WNW 4.8 km/h 19.3 km/h 52 % 0 mm
18:13 -0.1 °C -8.7 °C 1018.2 hPa WNW 3.2 km/h 11.3 km/h 52 % 0 mm
18:18 0 °C -8.7 °C 1018.2 hPa NW 9.8 km/h 9.8 km/h 52 % 0 mm
18:23 0 °C -8.7 °C 1018.2 hPa WNW 8 km/h 14.5 km/h 52 % 0 mm
18:28 0 °C -8.7 °C 1018.2 hPa WNW 4.8 km/h 14.5 km/h 52 % 0 mm
18:33 0 °C -8.9 °C 1018.2 hPa NW 7.7 km/h 9.3 km/h 51 % 0 mm
18:38 0 °C -8.9 °C 1018.2 hPa WNW 9.7 km/h 20.9 km/h 51 % 0 mm
18:43 0 °C -8.7 °C 1018.2 hPa NW 4.8 km/h 19.3 km/h 52 % 0 mm
18:48 0 °C -8.7 °C 1018.2 hPa NW 3.2 km/h 19.3 km/h 52 % 0 mm
18:53 0 °C -8.4 °C 1018.5 hPa WNW 4.8 km/h 19.3 km/h 53 % 0 mm
18:58 0 °C -8.7 °C 1018.5 hPa NW 7.2 km/h 11.1 km/h 52 % 0 mm
19:03 0 °C -8.7 °C 1018.5 hPa WNW 14.2 km/h 20.9 km/h 52 % 0 mm
19:09 0.1 °C -8.4 °C 1018.5 hPa WNW 7.6 km/h 18.5 km/h 53 % 0 mm
19:14 0 °C -8.7 °C 1018.5 hPa WSW 8.9 km/h 18.5 km/h 52 % 0 mm
19:19 0 °C -8.7 °C 1018.5 hPa WNW 3.4 km/h 5.6 km/h 52 % 0 mm
19:24 -0.1 °C -9 °C 1018.5 hPa West 11.1 km/h 22.2 km/h 51 % 0 mm
19:29 -0.1 °C -9 °C 1018.8 hPa West 6.6 km/h 14.8 km/h 51 % 0 mm
19:30 -0.1 °C -8.8 °C 1018.8 hPa West 10.5 km/h 14.5 km/h 52 % 0 mm
19:34 -0.1 °C -8.8 °C 1018.8 hPa NW 6.6 km/h 18.5 km/h 52 % 0 mm
19:39 -0.1 °C -8.6 °C 1018.8 hPa WNW 7.2 km/h 12.9 km/h 53 % 0 mm
19:44 -0.1 °C -9.1 °C 1018.8 hPa WSW 9.7 km/h 14.8 km/h 51 % 0 mm
19:49 -0.1 °C -8.8 °C 1018.8 hPa West 10.5 km/h 14.8 km/h 52 % 0 mm
19:54 -0.2 °C -8.8 °C 1018.8 hPa WNW 5.1 km/h 16.7 km/h 52 % 0 mm
20:00 -0.2 °C -8.8 °C 1018.8 hPa WNW 4.5 km/h 18.5 km/h 52 % 0 mm
20:05 -0.2 °C -8.9 °C 1018.8 hPa West 9.5 km/h 14.8 km/h 52 % 0 mm
20:10 -0.2 °C -8.9 °C 1019.2 hPa West 6.9 km/h 18.5 km/h 52 % 0 mm
20:15 -0.2 °C -8.4 °C 1019.2 hPa WNW 9.5 km/h 18.5 km/h 54 % 0 mm
20:20 -0.3 °C -8.9 °C 1019.2 hPa NW 10.1 km/h 22.2 km/h 52 % 0 mm
20:25 -0.3 °C -8.7 °C 1019.2 hPa WNW 9 km/h 18.5 km/h 53 % 0 mm
20:30 -0.3 °C -8.2 °C 1019.2 hPa WNW 1.9 km/h 5.6 km/h 55 % 0 mm
20:35 -0.3 °C -8.2 °C 1019.5 hPa NW 9.5 km/h 16.7 km/h 55 % 0 mm
20:40 -0.3 °C -8.7 °C 1019.5 hPa WSW 7.2 km/h 14.8 km/h 53 % 0 mm
20:45 -0.3 °C -8.8 °C 1019.5 hPa West 11.6 km/h 18.5 km/h 53 % 0 mm
20:50 -0.4 °C -8.8 °C 1019.5 hPa NNW 10.3 km/h 18.5 km/h 53 % 0 mm
20:55 -0.4 °C -8.6 °C 1019.9 hPa WNW 10.6 km/h 22.2 km/h 54 % 0 mm
21:00 -0.4 °C -8.6 °C 1019.5 hPa NNW 12.9 km/h 27.8 km/h 54 % 0 mm
21:05 -0.4 °C -8.4 °C 1019.5 hPa WSW 10 km/h 24.1 km/h 55 % 0 mm
21:11 -0.4 °C -8.9 °C 1019.5 hPa West 8.9 km/h 25.9 km/h 53 % 0 mm
21:16 -0.5 °C -8.7 °C 1019.5 hPa WNW 7.7 km/h 11.1 km/h 54 % 0 mm
21:21 -0.6 °C -8.7 °C 1019.5 hPa NNW 10.9 km/h 22.2 km/h 54 % 0 mm
21:26 -0.6 °C -8.5 °C 1019.5 hPa NW 9.7 km/h 20.4 km/h 55 % 0 mm
21:31 -0.6 °C -8.6 °C 1019.9 hPa WNW 13.7 km/h 24.1 km/h 55 % 0 mm
21:36 -0.7 °C -8.6 °C 1019.9 hPa WNW 12.9 km/h 22.5 km/h 55 % 0 mm
21:41 -0.7 °C -8.8 °C 1019.9 hPa WNW 12.6 km/h 25.9 km/h 54 % 0 mm
21:46 -0.7 °C -8.9 °C 1019.9 hPa West 7.7 km/h 9.3 km/h 54 % 0 mm
21:51 -0.7 °C -8.9 °C 1019.9 hPa NW 13.5 km/h 29.6 km/h 54 % 0 mm
21:56 -0.8 °C -8.7 °C 1020.2 hPa NW 15.4 km/h 22.5 km/h 55 % 0 mm
22:01 -0.8 °C -8.7 °C 1020.2 hPa NNW 13.7 km/h 22.2 km/h 55 % 0 mm
22:06 -0.8 °C -8.3 °C 1020.2 hPa NNW 7.4 km/h 18.5 km/h 57 % 0 mm
22:11 -0.9 °C -8.8 °C 1020.2 hPa NW 15.8 km/h 29.6 km/h 55 % 0 mm
22:16 -0.9 °C -9.3 °C 1020.5 hPa WNW 15.9 km/h 29.6 km/h 53 % 0 mm
22:21 -1 °C -9.6 °C 1020.2 hPa NNW 9.3 km/h 16.7 km/h 52 % 0 mm
22:26 -1.1 °C -9.9 °C 1020.5 hPa NNW 14.6 km/h 22.5 km/h 51 % 0 mm
22:31 -1.2 °C -10.8 °C 1020.5 hPa NNW 6.3 km/h 14.8 km/h 48 % 0 mm
22:32 -1.2 °C -10.3 °C 1020.5 hPa NNW 10.5 km/h 11.1 km/h 50 % 0 mm
22:37 -1.3 °C -10.1 °C 1020.5 hPa NNW 11.4 km/h 29 km/h 51 % 0 mm
22:43 -1.3 °C -9.9 °C 1020.5 hPa NW 12.2 km/h 20.4 km/h 52 % 0 mm
22:48 -1.4 °C -10.2 °C 1020.9 hPa NNW 8 km/h 16.7 km/h 51 % 0 mm
22:53 -1.4 °C -10.3 °C 1020.9 hPa North 13.5 km/h 20.4 km/h 51 % 0 mm
22:58 -1.5 °C -10.1 °C 1020.9 hPa NW 10.1 km/h 20.4 km/h 52 % 0 mm
23:03 -1.6 °C -9.9 °C 1020.9 hPa NW 9.8 km/h 18.5 km/h 53 % 0 mm
23:08 -1.6 °C -9.5 °C 1020.9 hPa North 13.7 km/h 31.5 km/h 55 % 0 mm
23:13 -1.7 °C -9.6 °C 1020.9 hPa NNW 12.7 km/h 25.7 km/h 55 % 0 mm
23:18 -1.7 °C -9.6 °C 1021.2 hPa NW 11.6 km/h 14.8 km/h 55 % 0 mm
23:23 -1.8 °C -9.9 °C 1021.2 hPa NNW 7.6 km/h 14.8 km/h 54 % 0 mm
23:28 -1.9 °C -9.5 °C 1021.2 hPa North 10.5 km/h 25.9 km/h 56 % 0 mm
23:33 -1.9 °C -9.8 °C 1021.2 hPa NNW 12.4 km/h 17.7 km/h 55 % 0 mm
23:38 -2.1 °C -9.7 °C 1021.2 hPa WNW 10.3 km/h 22.2 km/h 56 % 0 mm
23:41 -2.1 °C -9.7 °C 1021.2 hPa NW 13.5 km/h 24.1 km/h 56 % 0 mm
23:46 -2.1 °C -9.5 °C 1021.6 hPa NW 17.1 km/h 33.3 km/h 57 % 0 mm
23:51 -2.2 °C -10.3 °C 1021.6 hPa NNW 17.2 km/h 31.5 km/h 54 % 0 mm
23:56 -2.3 °C -10.6 °C 1021.6 hPa NW 20.3 km/h 40.7 km/h 53 % 0 mm
Crab Meadow Weather
Compliments of Weather Underground - 3 mb

Script developed by  Jim McMurry - jmcmurry@mwt.net Adapted for the template by  Wim van der Kuil - Leuven-Template.eu

Astronomy: Pluto is not a planet, because it does not have a fixed orbit and it's orbit comes in between the orbit of another planet (Neptune).